Terminal Aerodrome Forecast
Issued by NWS

Home | Current Version | Previous Version | Graphics & Text | Print | Product List | Glossary On
Versions: 1 2 3 4 5 6 7 8 9 10 11 12 13 14 15 16 17 18 19 20 21 22 23 24 25 26 27 28 29 30 31 32 33 34 35
000
FTUS43 KLOT 251136
TAFORD
TAF
KORD 251136Z 2512/2618 19017G26KT P6SM BKN025 OVC040
     FM251500 23023G34KT P6SM BKN018
     FM252000 24018G25KT P6SM BKN025 BKN250
     FM260200 20014G20KT P6SM BKN250
     FM260900 19012KT P6SM SCT040 BKN150 PROB30 2609/2612 SHRA
     FM261400 19011KT P6SM SCT035 BKN120 PROB30 2614/2618 -TSRA
      BKN035CB BKN120=

USA.gov is the U.S. government's official web portal to all federal, state and local government web resources and services.